Flag for U.S.A. Weather past 2 weeks in Chattanooga, Tennessee, U.S.A.

Now
44 °F

Passing clouds.


Feels Like: 40 °F
Forecast: 35 / 46 °F
Wind: 8 mph from Northwest

Location: Lovell Field

Current Time: Jan 26, 2015 at 7:30:08 AM

Latest Report: Jan 26, 2015 at 6:53 AM


Visibility: 10 mi

Pressure: 29.79 "Hg

Humidity: 73%

Dew point: 36 °F

Location of ChattanoogaLocation

Historic Weather in Chattanooga — Graph

°F

Chattanooga temperature yesterday

Maximum temperature yesterday: 57 °F (at 2:53 PM)
Minimum temperature yesterday: 28 °F (at 7:53 AM)
Average temperature yesterday: 44 °F

Past Weeks' High & Low Weather Summary

 TemperatureHumidityPressure
High67 °F (Jan 20, 2:53 PM)97% (Jan 12, 6:53 AM)30.56 "Hg (Jan 12, 6:53 AM)
Low25 °F (Jan 11, 6:53 AM)21% (Jan 19, 2:53 PM)29.70 "Hg (Jan 25, 3:53 PM)
Average42 °F71%30.14 "Hg
* Reported Jan 11 5:53 AM — Jan 26 5:53 AM, Chattanooga, Weather by CustomWeather, © 2014

Note: Actual official high and low records may vary slightly from our data, if they occured in-between our weather recording intervals... More about our weather records

Advertising

Chattanooga weather history for previous 24 hours

 ConditionsComfort  
Time TempWeatherWind HumidityBarometerVisibility
5:53 AM
Jan 26
45 °FPartly cloudy.12 mph74%29.77 "Hg10 mi
4:53 AM46 °FMostly cloudy.9 mph77%29.74 "Hg10 mi
3:53 AM47 °FMostly cloudy.8 mph74%29.72 "Hg10 mi
2:53 AM47 °FOvercast.8 mph74%29.72 "Hg10 mi
1:53 AM47 °FMostly cloudy.9 mph77%29.72 "Hg10 mi
12:53 AM47 °FMostly cloudy.8 mph77%29.72 "Hg10 mi
11:53 PM
Jan 25
47 °FLight rain. Overcast.No wind86%29.72 "Hg8 mi
10:53 PM47 °FRain. Mostly cloudy.3 mph83%29.72 "Hg8 mi
9:53 PM50 °FOvercast.5 mph66%29.71 "Hg10 mi
8:53 PM50 °FLight rain. Overcast.12 mph68%29.74 "Hg10 mi
7:53 PM51 °FMostly cloudy.7 mph63%29.73 "Hg10 mi
6:53 PM53 °FOvercast.12 mph59%29.75 "Hg10 mi
5:53 PM55 °FMostly cloudy.6 mph44%29.72 "Hg10 mi
4:53 PM56 °FMostly cloudy.6 mph42%29.70 "Hg10 mi
3:53 PM56 °FMostly cloudy.12 mph40%29.70 "Hg10 mi
2:53 PM57 °FScattered clouds.15 mph39%29.71 "Hg10 mi
1:53 PM55 °FScattered clouds.18 mph44%29.74 "Hg10 mi
12:53 PM53 °FScattered clouds.12 mph47%29.79 "Hg10 mi
11:53 AM51 °FScattered clouds.8 mph52%29.84 "Hg10 mi
10:53 AM45 °FScattered clouds.5 mph63%29.89 "Hg10 mi
9:53 AM40 °FScattered clouds.5 mph73%29.90 "Hg10 mi
8:53 AM34 °FScattered clouds.No wind85%29.91 "Hg10 mi
7:53 AM28 °FScattered clouds.No wind93%29.92 "Hg8 mi
Weather by CustomWeather, © 2014

See weather overviewHow to use our weather pages